Location: ??????
(55.2000°N, 38.3000°E)
Time: 01:31:10
(UTC+00:00)

ACS3 Solar Sail - Pass Details

Date: 15 November 2025
Orbit: 888 x 1001 km, 97.3° (Epoch: 12 December)

Event Time Altitude Azimuth Distance (km) Brightness Sun altitude
Rises 02:11:27 0° 11° (N) 3,538 4.9 -23.6°
Reaches altitude 10° 02:13:59 10° 3° (N) 2,606 4.1 -23.3°
Enters shadow 02:18:37 36° 313° (NW) 1,418 2.3 -22.6°
